EW5944 Weather Reports


time (UTC)temp
C
wind
direction
speed
KPH
gust
KPH
rain 1hr
cm
rain 24hr
cm
rain mn
cm
humidity
%
barometer
mb
20260505180712 22 28 0.0 0.0 0.00 0.00 0.00 1013.2
20260505175711 22 82 0.0 1.6 0.00 0.00 0.00 1013.2
20260505174710 21 8 0.0 1.6 0.00 0.00 0.00 1013.2
20260505173709 21 11 0.0 4.8 0.00 0.00 0.00 1013.9
20260505172708 21 100 0.0 3.2 0.00 0.00 0.00 1014.2
20260505171707 21 106 0.0 3.2 0.00 0.00 0.00 1014.2
20260505170635 21 89 0.0 1.6 0.00 0.00 0.00 1014.2
20260505165532 21 61 0.0 1.6 0.00 0.00 0.00 1014.2
20260505164531 21 131 0.0 1.6 0.00 0.00 0.00 1014.2
20260505163531 20 96 3.2 4.8 0.00 0.00 0.00 1013.9
20260505162530 20 109 1.6 3.2 0.00 0.00 0.00 1014.2
20260505161529 20 95 0.0 1.6 0.00 0.00 0.00 1014.2
20260505160528 20 116 1.6 4.8 0.00 0.00 0.00 1013.9
20260505152422 17 138 0.0 0.0 0.00 0.00 0.00 1014.9
20260505151421 17 138 0.0 0.0 0.00 0.00 0.00 1014.9
20260505150421 17 138 0.0 0.0 0.00 0.00 0.00 1014.9
20260505140243 15 64 0.0 0.0 0.00 0.00 0.00 1014.9
20260505130206 11 41 0.0 0.0 0.00 0.00 0.00 1015.2
20260505124031 10 41 0.0 0.0 0.00 0.00 0.00 1015.2
20260505123031 9 41 0.0 0.0 0.00 0.00 0.00 1015.2
20260505122030 8 41 0.0 0.0 0.00 0.00 0.00 1015.6
20260505120958 8 41 0.0 0.0 0.00 0.00 0.00 1015.2
20260505115957 8 41 0.0 0.0 0.00 0.00 0.00 1015.2
20260505114925 7 41 0.0 0.0 0.00 0.00 0.00 1015.2
20260505113751 7 41 0.0 0.0 0.00 0.00 0.00 1014.9
20260505112751 7 41 0.0 0.0 0.00 0.00 0.00 1014.9
20260505111647 7 41 0.0 0.0 0.00 0.00 0.00 1014.9
20260505110646 7 41 0.0 0.0 0.00 0.00 0.00 1014.6
20260505101611 7 41 0.0 0.0 0.00 0.00 0.00 1014.6
20260505100610 7 41 0.0 0.0 0.00 0.00 0.00 1014.2
20260505095609 7 41 0.0 0.0 0.00 0.00 0.00 1014.2
20260505094608 7 41 0.0 0.0 0.00 0.00 0.00 1014.2
20260505093608 7 41 0.0 0.0 0.00 0.00 0.00 1014.2
20260505092607 8 41 0.0 0.0 0.00 0.00 0.00 1014.2
20260505091606 8 41 0.0 0.0 0.00 0.00 0.00 1014.2
20260505090606 8 41 0.0 0.0 0.00 0.00 0.00 1014.2
20260505085604 8 41 0.0 0.0 0.00 0.00 0.00 1014.2
20260505084501 8 41 0.0 0.0 0.00 0.00 0.00 1014.2
20260505083500 8 41 0.0 0.0 0.00 0.00 0.00 1013.9
20260505082459 8 41 0.0 0.0 0.00 0.00 0.00 1013.9
20260505081458 8 41 0.0 0.0 0.00 0.00 0.00 1013.9
20260505080457 8 41 0.0 0.0 0.00 0.00 0.00 1013.5
20260505075425 9 41 0.0 0.0 0.00 0.00 0.00 1013.5
20260505074425 9 41 0.0 0.0 0.00 0.00 0.00 1013.5
20260505073353 9 41 0.0 0.0 0.00 0.00 0.00 1013.5
20260505072352 9 41 0.0 0.0 0.00 0.00 0.00 1013.2
20260505071351 10 41 0.0 0.0 0.00 0.00 0.00 1013.2
20260505070350 10 41 0.0 0.0 0.00 0.00 0.00 1013.5
20260505065349 10 41 0.0 0.0 0.00 0.00 0.00 1013.5
20260505064348 10 41 0.0 0.0 0.00 0.00 0.00 1013.5
20260505063315 10 41 0.0 0.0 0.00 0.00 0.00 1013.5
20260505062315 10 41 0.0 0.0 0.00 0.00 0.00 1013.5
20260505061314 10 41 0.0 0.0 0.00 0.00 0.00 1013.9
20260505060313 10 41 0.0 0.0 0.00 0.00 0.00 1013.9
20260505055312 11 41 0.0 0.0 0.00 0.00 0.00 1013.9
20260505054311 11 41 0.0 0.0 0.00 0.00 0.00 1013.9
20260505053310 11 41 0.0 0.0 0.00 0.00 0.00 1013.9
20260505052309 11 41 0.0 0.0 0.00 0.00 0.00 1013.9
20260505051308 11 41 0.0 0.0 0.00 0.00 0.00 1014.2
20260505050307 11 41 0.0 0.0 0.00 0.00 0.00 1014.2
20260505041128 12 41 0.0 0.0 0.00 0.00 0.00 1014.2
20260505040127 12 41 0.0 0.0 0.00 0.00 0.00 1014.2
20260505035126 13 41 0.0 0.0 0.00 0.00 0.00 1013.9
20260505034126 13 41 0.0 0.0 0.00 0.00 0.00 1014.2
20260505033125 14 72 0.0 0.0 0.00 0.00 0.00 1014.2
20260505032123 14 72 0.0 0.0 0.00 0.00 0.00 1014.2
20260505031051 14 72 0.0 0.0 0.00 0.00 0.00 1014.9
20260505030051 15 72 0.0 0.0 0.00 0.00 0.00 1014.9
20260505025050 15 72 0.0 0.0 0.00 0.00 0.00 1014.9
20260505024049 15 72 0.0 0.0 0.00 0.00 0.00 1014.6
20260505023048 15 72 0.0 0.0 0.00 0.00 0.00 1014.6
20260505022016 16 72 0.0 0.0 0.00 0.00 0.00 1014.2
20260505021015 16 72 0.0 0.0 0.00 0.00 0.00 1014.6
20260505015943 16 72 0.0 0.0 0.00 0.00 0.00 1014.6
20260505014942 16 72 0.0 0.0 0.00 0.00 0.00 1014.6
20260505013910 16 72 0.0 0.0 0.00 0.00 0.00 1014.2
20260505012908 17 72 0.0 0.0 0.00 0.00 0.00 1013.9
20260505011836 17 72 0.0 0.0 0.00 0.00 0.00 1013.9
20260505010836 17 72 0.0 0.0 0.00 0.00 0.00 1014.6
20260505005835 17 72 0.0 0.0 0.00 0.00 0.00 1013.9
20260505004731 17 72 0.0 0.0 0.00 0.00 0.00 1013.9
20260505003659 18 72 0.0 0.0 0.00 0.00 0.00 1013.9
20260505002658 18 48 0.0 0.0 0.00 0.00 0.00 1013.5
20260505001657 18 48 0.0 0.0 0.00 0.00 0.00 1013.5
20260505000625 18 10 0.0 0.0 0.00 0.00 0.00 1014.2
20260504235624 19 13 0.0 0.0 0.00 0.00 0.00 1013.9
20260504234623 19 13 0.0 0.0 0.00 0.00 0.00 1013.9
20260504233622 20 353 0.0 0.0 0.00 0.00 0.00 1013.5
20260504232621 20 353 0.0 0.0 0.00 0.00 0.00 1013.5
20260504231621 20 353 0.0 0.0 0.00 0.00 0.00 1013.5
20260504230620 20 37 0.0 0.0 0.00 0.00 0.00 1013.2
20260504225619 21 54 0.0 0.0 0.00 0.00 0.00 1013.5
20260504224617 21 0 0.0 0.0 0.00 0.00 0.00 1013.5
20260504223545 21 100 0.0 0.0 0.00 0.00 0.00 1013.2
20260504222544 21 41 0.0 0.0 0.00 0.00 0.00 1013.2
20260504221544 21 69 0.0 0.0 0.00 0.00 0.00 1013.2
20260504220511 22 85 0.0 0.0 0.00 0.00 0.00 1012.9
20260504215510 22 78 0.0 0.0 0.00 0.00 0.00 1012.9
20260504214509 22 14 0.0 0.0 0.00 0.00 0.00 1012.9
20260504213508 22 71 0.0 0.0 0.00 0.00 0.00 1012.9
20260504212508 22 71 0.0 0.0 0.00 0.00 0.00 1012.5
20260504211507 23 120 0.0 0.0 0.00 0.00 0.00 1012.5
20260504210506 23 62 0.0 0.0 0.00 0.00 0.00 1012.5
20260504205434 23 58 0.0 0.0 0.00 0.00 0.00 1012.5
20260504204433 23 134 0.0 0.0 0.00 0.00 0.00 1012.5
20260504203432 23 134 0.0 3.2 0.00 0.00 0.00 1012.5
20260504202431 23 120 0.0 3.2 0.00 0.00 0.00 1012.5
20260504201430 24 131 0.0 3.2 0.00 0.00 0.00 1012.5
20260504200429 24 104 0.0 0.0 0.00 0.00 0.00 1012.5
20260504195428 24 104 0.0 9.7 0.00 0.00 0.00 1012.9
20260504194427 23 339 1.6 12.9 0.00 0.00 0.00 1012.9
20260504193426 23 65 0.0 0.0 0.00 0.00 0.00 1013.2
20260504192425 23 23 0.0 9.7 0.00 0.00 0.00 1013.5
20260504191424 22 95 0.0 0.0 0.00 0.00 0.00 1013.5
20260504190423 22 93 0.0 9.7 0.00 0.00 0.00 1013.5
20260504185422 22 127 3.2 8.0 0.00 0.00 0.00 1013.9
20260504184422 22 97 0.0 0.0 0.00 0.00 0.00 1013.9
20260504183421 22 349 0.0 3.2 0.00 0.00 0.00 1014.2
20260504182420 22 315 0.0 0.0 0.00 0.00 0.00 1014.6